INMARSAT 3-F5

Last updated on Tue Sep 22 2026 00:03:10 GMT+0000 (Coordinated Universal Time)

1 25153U 98006B 26264.29912413 -.00000289 00000+0 00000+0 0 9998 2 25153 9.9029 52.2704 0004548 128.1695 233.4824 1.00272353104868
UTC large
Height (km)
Speed (km/s)
/
Latitude / Longitude
Inclination (degrees)
Orbital Period (minutes)
Azimuth
Elevation
Range (km)
Doppler Factor

Next 0 passes for location: London (51.5072 / 0.1276)

No passes found over London.
INMARSAT 3-F5